YMA7562 FBSK-FQMA

Flight info

Callsign YMA7562
Flight time N/A
Altitude 31000
Route FBSK UDBUL PEDIL AVAGO JSV EXOB IORNAD FQMA
Aircraft B738/M-VGDW/C

Departure

Time 2026-04-25 09:17
Airport Sir Seretse Khama International Airport (FBSK)

Arrival

Time N/A
Airport Maputo Airport (FQMA)
Time Latitude Longitude Altitude Speed Heading
2026-04-25 09:04 -24.55510 25.92613 3319 ft 0 kts 152°
2026-04-25 09:10 -24.55522 25.92609 3319 ft 3 kts 230°
2026-04-25 09:10 -24.55522 25.92584 3319 ft 5 kts 278°
2026-04-25 09:11 -24.55515 25.92396 3317 ft 13 kts 284°
2026-04-25 09:11 -24.55512 25.92292 3315 ft 13 kts 249°
2026-04-25 09:11 -24.55555 25.92197 3314 ft 13 kts 242°
2026-04-25 09:12 -24.55598 25.92108 3313 ft 12 kts 242°
2026-04-25 09:12 -24.55639 25.92023 3313 ft 12 kts 242°
2026-04-25 09:12 -24.55680 25.91940 3311 ft 12 kts 242°
2026-04-25 09:12 -24.55721 25.91860 3310 ft 11 kts 240°
2026-04-25 09:13 -24.55757 25.91786 3310 ft 10 kts 243°
2026-04-25 09:13 -24.55789 25.91715 3310 ft 10 kts 244°
2026-04-25 09:13 -24.55824 25.91649 3309 ft 10 kts 238°
2026-04-25 09:13 -24.55893 25.91512 3311 ft 32 kts 242°
2026-04-25 09:14 -24.56012 25.91271 3313 ft 35 kts 242°
2026-04-25 09:14 -24.56135 25.91023 3315 ft 38 kts 242°
2026-04-25 09:14 -24.56264 25.90762 3315 ft 31 kts 240°
2026-04-25 09:14 -24.56250 25.90600 3313 ft 15 kts 325°
2026-04-25 09:15 -24.56187 25.90564 3311 ft 10 kts 341°
2026-04-25 09:15 -24.56138 25.90599 3311 ft 8 kts 71°
2026-04-25 09:15 -24.56126 25.90626 3311 ft 0 kts 61°
2026-04-25 09:17 -24.55646 25.91594 3307 ft 148 kts 62°
2026-04-25 09:17 -24.55108 25.92743 3618 ft 180 kts 60°
2026-04-25 09:17 -24.54510 25.93994 4186 ft 194 kts 60°
2026-04-25 09:18 -24.53864 25.95338 4711 ft 201 kts 60°
2026-04-25 09:18 -24.53354 25.96786 5178 ft 208 kts 78°
2026-04-25 09:18 -24.53399 25.98382 5692 ft 211 kts 105°
2026-04-25 09:18 -24.54175 25.99783 6256 ft 224 kts 134°
2026-04-25 09:19 -24.55515 26.00682 6818 ft 232 kts 162°
2026-04-25 09:19 -24.57126 26.00933 7368 ft 234 kts 176°
2026-04-25 09:19 -24.58777 26.01053 7840 ft 242 kts 176°
2026-04-25 09:19 -24.60511 26.01195 8368 ft 256 kts 176°
2026-04-25 09:20 -24.62376 26.01366 8926 ft 279 kts 175°
2026-04-25 09:20 -24.64345 26.01824 9449 ft 303 kts 160°
2026-04-25 09:20 -24.66241 26.02945 9971 ft 311 kts 148°
2026-04-25 09:20 -24.68078 26.04254 10469 ft 310 kts 147°
2026-04-25 09:21 -24.69876 26.05522 10955 ft 311 kts 151°
2026-04-25 09:21 -24.71775 26.06686 11449 ft 313 kts 153°
2026-04-25 09:21 -24.73758 26.07752 11952 ft 314 kts 156°
2026-04-25 09:21 -24.75746 26.08793 12445 ft 316 kts 156°
2026-04-25 09:22 -24.77743 26.09849 12936 ft 320 kts 156°
2026-04-25 09:22 -24.79718 26.10988 13410 ft 324 kts 146°